Location: Anne Acres
(38.7004°N, 75.0827°W)
Time: 06:02:45
(UTC+00:00)

Hubble Space Telescope - Visible Passes

Search period start: 14 October 2024 00:00
Search period end: 24 October 2024 00:00
Orbit: 503 x 507 km, 28.5° (Epoch: 13 October)

Date Brightness Start Highest point End Pass type
(mag) Time Alt. Az. Time Alt. Az. Time Alt. Az.
17 Oct 3.4 00:33:35 10° SSW 00:33:45 11° SSW 00:33:45 11° SSW visible
18 Oct 2.9 00:11:51 10° SSW 00:13:26 15° S 00:13:26 15° S visible
18 Oct 2.6 23:50:08 10° SW 23:52:44 17° S 23:53:03 17° SSE visible
19 Oct 2.7 23:28:24 10° SW 23:31:03 17° S 23:32:38 14° SE visible
20 Oct 2.7 23:06:40 10° SW 23:09:21 18° S 23:12:02 10° SE visible
21 Oct 3.6 00:46:40 10° SW 00:46:49 11° SW 00:46:49 11° SW visible
21 Oct 2.8 22:44:55 10° SW 22:47:37 18° S 22:50:20 10° SE visible
22 Oct 3.2 00:25:01 10° SW 00:26:21 14° SSW 00:26:21 14° SSW visible
23 Oct 2.9 00:03:22 10° SW 00:05:38 15° S 00:05:54 15° S visible
23 Oct 3.0 23:41:42 10° SW 23:43:51 14° SSW 23:45:27 12° SSE visible
